Simultaneous Nadir Overpasses (SNOs) Predictions

Prediction of SNOs between FY3D and AQUA Satellite Orbit:

Table of predicted SNOs for the next 14.0 days since TLE Epoch: 5/21/2022
Index Date (FY3D) Time (FY3D) Lat,Lon (FY3D) SZA (FY3D ) Date (AQUA) Time (AQUA) Lat,Lon (AQUA) SZA (AQUA ) Distance(km) Time Diff (sec)
1 05/21/2022 17:14:03 75.73, -88.73 55.58 05/21/2022 17:14:54 75.73, -88.70 55.57 0.82 51
2 05/21/2022 18:04:18 -74.28, 82.81 126.02 05/21/2022 18:03:51 -74.29, 82.74 126.01 2.34 27
3 05/24/2022 08:40:55 -75.15,-138.66 125.58 05/24/2022 08:41:18 -75.16,-138.74 125.57 2.52 23
4 05/24/2022 09:31:19 74.10, 31.53 53.28 05/24/2022 09:30:24 74.10, 31.55 53.28 0.50 55
5 05/26/2022 23:17:33 -75.99, -0.42 125.08 05/26/2022 23:18:45 -76.00, -0.45 125.09 0.97 72
6 05/27/2022 00:07:58 75.03, 169.96 53.83 05/27/2022 00:07:52 75.02, 169.99 53.82 1.18 6
7 05/29/2022 14:44:28 75.51, -50.58 53.95 05/29/2022 14:45:11 75.52, -50.66 53.95 2.34 43
8 05/29/2022 15:34:54 -74.59, 119.45 127.08 05/29/2022 15:34:18 -74.58, 119.48 127.08 0.92 36
9 06/01/2022 06:11:27 -75.22,-101.43 126.75 06/01/2022 06:11:39 -75.23,-101.47 126.75 1.21 12
10 06/01/2022 07:01:49 74.08, 69.03 52.00 06/01/2022 07:00:43 74.08, 69.05 52.00 0.84 66
11 06/03/2022 20:47:59 -75.85, 37.51 126.37 06/03/2022 20:48:58 -75.86, 37.45 126.38 1.69 59



Historial Predications of SNOs between FY3D and AQUA
